Dauntless Aviation
Greetings, Guest! To participate, [sign up for a free account] or [log in]
Airports North America United States Colorado
98CO

NCMC HELIPORT

GREELEY, CO, USA

Airport Info

Location

Latitude / Longitude: 40°24'53"N / 104°42'28"W
  40°24.9'N / 104°42.4667'W
  40.4150 / -104.7078
Elevation: 4882 ft. (estimated)
Variation: 12E (1985)
From city: 00 miles N of GREELEY, CO

Operations

Facility use: Private
Sectional chart: DENVER
Control tower: no
Boundary ARTCC: DENVER
FSS: DENVER [1-800-WX-BRIEF]
Segmented circle: no

Communications

Nearby radio navigation aids

VOR radial/distance VOR name Freq Var
GLL 233oT/8.9 GILL VORTAC 114.20 13E
DVV 353oT/31.5 MILE HIGH VORTAC 114.70 11E
BJC 33oT/36.1 JEFFCO VOR/DME 115.40 11E
DEN 357oT/36.2 DENVER VOR/DME 117.90 11E
 
NDB name Hdg/Dist Freq Var ID

Services

Runway Information

Helipad H1

Dimensions: 40 x 40 ft.
Surface: PORTLAND CEMENT CONCRETE,NO SPECIAL SURFACE TREATMENT
 

Additional Remarks

Instrument Procedures

No published instrument procedures available
Topographic chart at:
Satellite photo at:
Airport distance calculator
From:
Weather Reports

METAR

KGXY
4.2nm NE
KGXY 231715Z AUTO 25020G28KT 10SM CLR 22/M01 A2961 RMK AO1
KFNL
14.3nm W
KFNL 231715Z AUTO 22011G24KT 10SM CLR 20/M02 A2963 RMK AO1
KLMO
25.8nm SW
KLMO 231715Z AUTO 25014G21KT 10SM CLR 22/M04 A2964 RMK AO2 T02191042
KEIK
28.6nm S
KEIK 231716Z AUTO 29016G24KT 10SM CLR 20/M03 A2961 RMK AO2 T02021031
KBDU
33.3nm SW
KBDU 231716Z AUTO 26020G29KT 10SM CLR 18/M02 A2963 RMK AO2
KDEN
35.0nm SE
KDEN 231653Z 31011KT 10SM FEW080 SCT110 SCT180 21/M02 A2963 RMK AO2 SLP963 T02061022

TAF

KDEN
35.0nm SE
KDEN 231627Z 2316/2418 32013KT P6SM FEW080 SCT120 BKN200 FM231900 34015KT P6SM SCT080 BKN150 FM232200 35017G24KT P6SM VCSH SCT070 BKN140 FM240200 34011KT P6SM SCT140 BKN200 FM240800 25006KT P6SM FEW200
KBJC
35.3nm S
KBJC 231415Z 2314/2412 26012KT P6SM FEW120 BKN180 FM231600 29014KT P6SM FEW080 BKN150 FM231800 30015G25KT P6SM SCT080 BKN140 FM240100 34010KT P6SM SCT140 BKN200 FM240600 28010KT P6SM FEW200
Safelog

 

Dauntless Aviation

© 2007-2014 Dauntless Aviation, all rights reserved
Information provided via PilotNav comes from a variety of official and unofficial data sources. As errors are possible, do not use PilotNav for primary flight planning purposes. Verify any information that you receive via PilotNav with current and canonical charts and other official documents. The material in this database is subject to database copyrights held by Dauntless Aviation and may not be copied without the express permission of Dauntless Aviation - licenses for use of part of all of this data are available for purchase; enquire via the Dauntless Aviation helpdesk. A number of mechanisms and markers exist in the database to protect against and identify infringement / copyright. Automated queries against this website are stictly prohibited, and all activity is logged and analyzed.